Tracking 28096 objects as of 29-Sep-2023
HD Live streaming from Space Station
objects crossing your sky now

SL-14 R/B

Track SL-14 R/B now!
10-day predictions
SL-14 R/B is classified as:


NORAD ID: 15945
Int'l Code: 1985-069B
Perigee: 609.0 km
Apogee: 634.0 km
Inclination: 82.5 °
Period: 97.0 minutes
Semi major axis: 6992 km
RCS: 5.1348 m2 (large)
Launch date: August 8, 1985
Source: Commonwealth of Independent States (former USSR) (CIS)
Launch site: PLESETSK MISSILE AND SPACE COMPLEX (PKMTR)

Note: This is a ROCKET BODY
Your satellite tracking list
Your tracking list is empty




NASA's NSSDC Master Catalog

Two Line Element Set (TLE):
1 15945U 85069B   23271.72121661  .00000766  00000-0  87426-4 0  9993
2 15945  82.5276 143.5710 0017823 267.6139  92.3036 14.84752977 40250
Source of the keplerian elements: AFSPC